Thursday, October 30, 2014
18:14 UTC
  |  Log In   |  Register Free
Airport Search:

South Big Horn County Airport
(KGEY)

South Big Horn County Airport Diagram
No Airport Diagram Available

FAA data valid effective September 18, 2014 - November 13, 2014 (unless otherwise noted).

 
 
 
 
 
 
 
 
 
 
 
 
 
 

Current Aviation Weather for South Big Horn County Airport (KGEY)

The most recent METAR observation for KGEY was updated at: 1811
METAR Summary (Translated METAR)
KGEY
301753Z AUTO VRB03KT 10SM CLR 11/M04 A3032 RMK AO2 SLP278 T01061044 10106 21017 58004
KU68
301655Z AUTO 09003KT 10SM CLR 08/M03 A3034 RMK AO2 PWINO
(28.3 nm NW from KGEY)
KWRL
301653Z AUTO 00000KT 10SM CLR 08/M04 A3032 RMK AO2 SLP278 T00781044
(33.8 nm SE from KGEY)
TAF Summary (Translated TAF)
KWRL
(33.8 nm SE from KGEY)
301126Z 3012/3112 14005KT P6SM FEW120
  Airport Weather Conditions for KGEY

Current weather conditions are
not available for GEY


The nearest NOAA weather station
is at U68, (28.3 nm NW from GEY)
  
 Current Weather at U68
46° F
Fair
Southeast winds at 4.6 mph
U68 NOAA Radar

Pressure: 30.34 in
Humidity: 43%
Wind: Southeast at 4.6 MPH (4 KT)
Dew Point: 24.8°F
Visibility: 10.00 mi


Airport Weather Forecast for KGEY

Translated METAR and TAF for KGEY
Translated METAR for KGEY (1809 UTC 30 October 2014)
found at http://aviationweather.gov/adds/metars/
 
METAR text: KGEY 301753Z AUTO VRB03KT 10SM CLR 11/M04 A3032 RMK AO2 SLP278 T01061044 10106 21017 58004
Conditions at: KGEY (GREYBULL , WY, US) observed 1753 UTC 30 October 2014
Temperature: 10.6°C (51°F)
Dewpoint: -4.4°C (24°F) [RH = 35%]
Pressure (altimeter): 30.32 inches Hg (1026.8 mb)
[Sea-level pressure: 1027.8 mb]
Winds: variable direction winds at 3 MPH (3 knots; 1.6 m/s)
Visibility: 10 or more miles (16+ km)
Ceiling: at least 12,000 feet AGL
Clouds: sky clear below 12,000 feet AGL
Weather: automated observation with no human augmentation;
there may or may not be significant weather present at this time
Translated TAF for KGEY

There is no translated TAF available for this airport

Find All Airport Services Find A Hotel Find A Rental Car Find A Golf Course Find A Restaurant $100 Hamburger



FBO's on the Field
FBO Company Facility Photos Services Transportation Aviation Fuel Prices: Prices include tax
Catering Weather Repair Courtesy Rental Type 100LL JetA JetA+ MOGAS 8087
 
B & G Industries, LLC

This FBO has not yet been rated
FS:Independent
Last Updated: Oct-16
Login to update fuel prices
SS:
Contact B & G Industries, LLCMore FBO Information
 
South Big Horn County Airport

This FBO has not yet been rated
FS:Independent
Last Updated: Oct-23
Login to update fuel prices
SS:
Contact South Big Horn County AirportMore FBO Information
 
Add another FBO Facility Photos Catering Weather Repair Courtesy Rental Type 100LL JetA JetA+ MOGAS 8087
Services Transportation Aviation Fuel Prices: Prices include tax


model-print
model-print
model-print
model-print